Location: Morlupo
(42.1333°N, 12.5000°E)
Time: 03:39:45
(UTC+00:00)

Cosmos 1603 - Visible Passes

Search period start: 26 January 2021 00:00
Search period end: 05 February 2021 00:00
Orbit: 831 x 859 km, 71.0° (Epoch: 25 January)

Date Brightness Start Highest point End Pass type
(mag) Time Alt. Az. Time Alt. Az. Time Alt. Az.
26 Jan 6.1 04:46:26 10° SSE 04:50:51 24° ESE 04:55:16 10° NE visible
26 Jan 7.1 17:09:20 10° WNW 17:11:44 13° W 17:14:09 10° WSW visible
27 Jan 6.1 04:32:33 10° SSE 04:36:53 23° ESE 04:41:15 10° NE visible
27 Jan 7.0 16:55:12 10° WNW 16:57:48 13° W 17:00:24 10° SW visible
28 Jan 6.1 04:18:40 10° SSE 04:22:56 23° E 04:27:13 10° NE visible
28 Jan 6.9 16:41:04 10° WNW 16:43:51 14° W 16:46:38 10° SW visible
29 Jan 6.1 04:04:48 10° SSE 04:08:58 22° E 04:13:11 10° NE visible
29 Jan 3.8 05:47:10 10° SW 05:52:38 53° WNW 05:58:11 10° NNE visible
30 Jan 6.1 03:50:55 10° SSE 03:55:00 21° E 03:59:09 10° NE visible
30 Jan 3.8 05:33:11 10° SW 05:38:40 55° WNW 05:44:14 10° NNE visible
31 Jan 6.1 03:37:03 10° SE 03:41:04 20° E 03:45:06 10° NE visible
31 Jan 3.7 05:19:11 10° SW 05:24:41 57° WNW 05:30:16 10° NNE visible
01 Feb 6.1 03:23:10 10° SE 03:27:06 20° E 03:31:03 10° NE visible
01 Feb 3.7 05:05:10 10° SW 05:10:41 59° WNW 05:16:18 10° NNE visible
02 Feb 6.1 03:09:19 10° SE 03:13:09 19° E 03:17:00 10° NE visible
02 Feb 3.7 04:51:10 10° SW 04:56:42 60° WNW 05:02:20 10° NNE visible
03 Feb 6.1 02:55:42 11° SE 02:59:11 18° E 03:02:57 10° ENE visible
03 Feb 3.6 04:37:45 13° SW 04:42:43 62° WNW 04:48:22 10° NNE visible
04 Feb 6.0 02:43:58 17° ESE 02:45:14 18° E 02:48:54 10° ENE visible
04 Feb 3.6 04:25:57 30° SW 04:28:44 65° WNW 04:34:23 10° NNE visible
